Погода в Малой Черге

Россия / Республика Алтай     51°20′35″N   85°33′11″E
темп.,
°C
ветер,
м/с
пор.,
м/с
влажн.,
%
обл.,
%
осадки,
мм/ч
давл.,
гПа
погр.,
м
15 апреля, чт
чт1501:00−1ю239195 1.8 103070
04:00−2ююз229072 0.0 103024
07:00−2ююз22866 0.0 103039
10:00+5ю12565 0.0 1026674
13:00+9ююз12445 0.0 10231274
16:00+10с124347 0.0 10211617
19:00+5ссв337719 0.0 1023316
22:00+1ссв119555 0.0 1026145
16 апреля, пт
пт1601:00+1ююв119225 0.0 102583
04:00−1ю119517 0.0 102511
07:00−1ю22956 0.0 102533
10:00+6юз12654 0.0 1021668
13:00+10юз24454 0.0 10181410
16:00+12зюз23383 0.0 10161794
19:00+9ссз12565 0.0 1016346
22:00+3ююв11850 0.0 101911
17 апреля, сб
сб1701:00+1ююз22770 0.0 101919
04:000ююз2274100 0.0 101924
07:00+1ююз2269100 0.0 101740
10:00+7юз1248100 0.0 1014453
13:00+10з4639100 0.0 10112236
16:00+10зсз4743100 0.2 10101849
19:00+6ссз2372100 1.7 1012481
22:00+2ссз019332 1.0 101610
18 апреля, вс
вс1801:00+1с2399100 2.1 1017264
04:00−2ссв2396100 2.3 1021295
07:00−3св129299 2.8 1022310
10:00+1юз127292 0.1 1020815
13:00+6зсз364740 0.1 10151600
16:00+7з37345 0.0 10122239
19:00+4с13623 0.0 1014517
22:00+2ююз413620 0.0 1014506
19 апреля, пн
пн1901:00+3ююз615605 0.0 1011846
04:00+2ююз6157619 0.0 1009834
07:00+3юз61471100 0.1 10071157
10:00+4юз5118282 0.4 10081083
13:00+6з61359100 1.4 10082116
16:00−1ссв4489100 0.6 1014608
19:00−4ссв3490100 2.2 1018531
22:00−6ссв2391100 1.1 1020491